logo dgac
Martes 06 de Diciembre del 2022
Buscar por aerodromo o helipuerto
Ingrese nombre de aeródromo, localidad o designador OACI:

Aeródromo: Desierto de Atacama (PUB) (SCAT)

Ubicación: Caldera, III Región, Chile (27º 15' 42'' S, 70º 46' 45'' W) Ver ubicación en el mapa

Pistas

Luces
Orientación Dimensión Pendiente Superficie Resistencia APCH THR RWY PAPI
17/35 2200 X 45 0,70 ASPH PCN 48 F/A/W/T
Horas de operación HJ
Elevación 204 m / 670 ft
Otra Información Adm : D.G.A.C
Uso : PUB
Ubicado : 22 km SE de Caldera y 52 km NW Copiapó
TEL 52-2523600 2523603
ARO TEL/FAX 522523605 ARO CEL +56 961745281 TWR CEL +56 961740952
email : aro.atacama@dgac.gob.cl

Otra información ver AIP-Chile Volumen I AD 3.9-3.2-C

CCCM/FCCV Descargar
andera de Chile
Mapa de Desierto de Atacama (PUB) (SCAT)

Último METAR

METAR SCAT 060600Z AUTO 30004KT 250V320 9999 OVC011/// 15/13 Q1013

Último TAF

TAF SCAT 060400Z 0606/0706 30004KT 9999 OVC011 TN14/0606Z TX21/0618Z BECMG 0610/0612 35012KT OVC020 BECMG 0616/0618 26010KT CAVOK BECMG 0700/0702 22004KT OVC018

Últimas fotos cámaras

Imagen aerodromo Desierto de Atacama (PUB) (SCAT) Sur tomada el 06-12-2022 07:52:20 Imagen aerodromo Desierto de Atacama (PUB) (SCAT) Norte tomada el 06-12-2022 07:52:36

Último NOTAM

C5378/22 NOTAMN Q)SCFZ/QMKLX/IV/M/A/000/999/2716S07047W005 A)SCAT B)2212010000 C)2301032359 E)PRKG 1 CTN LGT DEFICIENTE